Tracking 17842 objects as of 31-August-2016
HD Live streaming from Space Station
objects crossing your sky now

COSMOS 970 DEB

Track COSMOS 970 DEB now!
10-day predictions


NORAD ID: 10563
Int'l Code: 1977-121E
Perigee: 868.0 km
Apogee: 1,031.7 km
Inclination: 65.9 °
Period: 103.9 minutes
Semi major axis: 7320 km
RCS: 0.0231 m2 (small)
Launch date: December 21, 1977
Source: Commonwealth of Independent States (former USSR) (CIS)
Launch site: TYURATAM MISSILE AND SPACE COMPLEX (TTMTR)

Note: This is SATELLITE DEBRIS
Your satellite tracking list
Your tracking list is empty





NASA's NSSDC Master Catalog

Two Line Element Set (TLE):
1 10563U 77121E   16243.78876731  .00000295  00000-0  31307-3 0  9999
2 10563  65.8500  29.1184 0111800 304.9220  54.1383 13.85990950941082
Source of the keplerian elements: AFSPC

N2YO: 525